When you browse on this site, cookies collect data to enhance your experience and personalize the content and advertising you see.
Visit our Privacy Policy to learn more. By continuing to use the site, you agree to this use of cookies and data.

Hourly Weather Valencia

Today, 26 September, Saturday

Time Temperature Precipitation Wind Pressure Humidity
00:00 +22°C° 0 mm 0 mps 718 mmHg 93%
01:00 +21°C° 0 mm 0 mps 717 mmHg 93%
02:00 +21°C° 0 mm 0 mps 717 mmHg 93%
03:00 +21°C° 0 mm 0 mps 717 mmHg 94%
04:00 +21°C° 0 mm 0 mps 717 mmHg 94%
05:00 +22°C° 0 mm 0 mps 718 mmHg 93%
06:00 +23°C° 0 mm 0 mps 718 mmHg 92%
07:00 +24°C° 0 mm 0 mps 718 mmHg 91%
08:00 +26°C° 0.1 mm 0 mps 719 mmHg 79%
09:00 +28°C° 0.1 mm 0 mps 719 mmHg 68%
10:00 +31°C° 0.1 mm 0 mps 720 mmHg 56%
11:00 +33°C° 0.3 mm 1 mps 719 mmHg 55%
12:00 +33°C° 0.3 mm 1 mps 718 mmHg 54%
13:00 +34°C° 0.3 mm 2 mps 717 mmHg 53%
14:00 +31°C° 0.2 mm 2 mps 716 mmHg 61%
15:00 +30°C° 0.2 mm 2 mps 716 mmHg 69%
16:00 +29°C° 0.2 mm 2 mps 715 mmHg 76%
17:00 +28°C° 0 mm 1 mps 715 mmHg 81%
18:00 +26°C° 0 mm 1 mps 716 mmHg 86%
19:00 +24°C° 0 mm 1 mps 716 mmHg 91%
20:00 +24°C° 0 mm 1 mps 716 mmHg 92%
21:00 +24°C° 0 mm 1 mps 717 mmHg 92%
22:00 +24°C° 0 mm 1 mps 717 mmHg 92%
23:00 +24°C° 0 mm 1 mps 717 mmHg 93%

Tomorrow, 27 September, Sunday

Time Temperature Precipitation Wind Pressure Humidity
00:00 +24°C° 0 mm 1 mps 716 mmHg 94%
01:00 +24°C° 0 mm 1 mps 716 mmHg 95%
02:00 +23°C° 0 mm 1 mps 716 mmHg 95%
03:00 +23°C° 0 mm 1 mps 715 mmHg 96%
04:00 +23°C° 0 mm 1 mps 715 mmHg 96%
05:00 +24°C° 0 mm 1 mps 716 mmHg 92%
06:00 +25°C° 0 mm 1 mps 716 mmHg 88%
07:00 +24°C° 0 mm 0 mps 716 mmHg 85%
08:00 +26°C° 0 mm 0 mps 717 mmHg 75%
09:00 +29°C° 0 mm 0 mps 717 mmHg 65%
10:00 +31°C° 0 mm 0 mps 718 mmHg 55%
11:00 +33°C° 0.3 mm 1 mps 717 mmHg 59%
12:00 +32°C° 0.3 mm 1 mps 716 mmHg 63%
13:00 +31°C° 0.3 mm 1 mps 715 mmHg 67%
14:00 +30°C° 0.6 mm 1 mps 715 mmHg 72%
15:00 +30°C° 0.6 mm 1 mps 714 mmHg 77%
16:00 +29°C° 0.6 mm 1 mps 714 mmHg 82%
17:00 +28°C° 0.1 mm 1 mps 714 mmHg 86%
18:00 +26°C° 0.1 mm 1 mps 714 mmHg 90%
19:00 +25°C° 0.1 mm 1 mps 715 mmHg 95%
20:00 +25°C° 0.1 mm 1 mps 715 mmHg 95%
21:00 +24°C° 0.1 mm 1 mps 715 mmHg 95%
22:00 +24°C° 0.1 mm 1 mps 716 mmHg 96%
23:00 +24°C° 0 mm 1 mps 715 mmHg 96%

Day after tomorrow, 28 September, Monday

Time Temperature Precipitation Wind Pressure Humidity
00:00 +24°C° 0 mm 1 mps 715 mmHg 96%
01:00 +24°C° 0 mm 1 mps 715 mmHg 96%
02:00 +24°C° 0 mm 1 mps 714 mmHg 96%
03:00 +23°C° 0 mm 1 mps 714 mmHg 96%
04:00 +23°C° 0 mm 1 mps 714 mmHg 96%
05:00 +22°C° 0 mm 0 mps 715 mmHg 94%
06:00 +23°C° 0 mm 0 mps 715 mmHg 91%
07:00 +24°C° 0 mm 0 mps 716 mmHg 88%
08:00 +28°C° 0 mm 1 mps 716 mmHg 78%
09:00 +30°C° 0 mm 1 mps 717 mmHg 68%
10:00 +32°C° 0 mm 1 mps 717 mmHg 58%
11:00 +32°C° 0.1 mm 1 mps 716 mmHg 59%
12:00 +32°C° 0.1 mm 1 mps 716 mmHg 61%
13:00 +32°C° 0.1 mm 1 mps 715 mmHg 62%
14:00 +31°C° 0.4 mm 1 mps 714 mmHg 67%
15:00 +30°C° 0.4 mm 1 mps 714 mmHg 72%
16:00 +30°C° 0.4 mm 1 mps 714 mmHg 77%
17:00 +28°C° 0.7 mm 1 mps 714 mmHg 83%
18:00 +27°C° 0.7 mm 1 mps 714 mmHg 88%
19:00 +25°C° 0.7 mm 1 mps 715 mmHg 94%
20:00 +25°C° 1.2 mm 1 mps 715 mmHg 94%
21:00 +25°C° 1.2 mm 1 mps 715 mmHg 93%
22:00 +24°C° 1.2 mm 1 mps 716 mmHg 93%
23:00 +22°C° 0.6 mm 0 mps 715 mmHg 93%

29 September, Tuesday

Time Temperature Precipitation Wind Pressure Humidity
00:00 +22°C° 0.6 mm 0 mps 715 mmHg 92%
01:00 +22°C° 0.6 mm 0 mps 715 mmHg 92%
02:00 +22°C° 0.2 mm 0 mps 715 mmHg 91%
03:00 +22°C° 0.2 mm 0 mps 715 mmHg 91%
04:00 +22°C° 0.2 mm 0 mps 715 mmHg 91%
05:00 +24°C° 0.1 mm 1 mps 716 mmHg 90%
06:00 +25°C° 0.1 mm 1 mps 716 mmHg 89%
07:00 +26°C° 0.1 mm 1 mps 717 mmHg 88%
08:00 +26°C° 1 mm 2 mps 717 mmHg 85%
09:00 +27°C° 1 mm 2 mps 717 mmHg 82%
10:00 +28°C° 1 mm 3 mps 718 mmHg 80%
11:00 +28°C° 1.2 mm 3 mps 717 mmHg 80%
12:00 +28°C° 1.2 mm 3 mps 716 mmHg 80%
13:00 +28°C° 1.2 mm 3 mps 716 mmHg 81%
14:00 +27°C° 0.9 mm 3 mps 715 mmHg 82%
15:00 +27°C° 0.9 mm 3 mps 715 mmHg 84%
16:00 +27°C° 0.9 mm 2 mps 715 mmHg 86%
17:00 +26°C° 0.2 mm 2 mps 715 mmHg 88%
18:00 +25°C° 0.2 mm 1 mps 716 mmHg 90%
19:00 +24°C° 0.2 mm 1 mps 716 mmHg 92%
20:00 +24°C° 0 mm 1 mps 716 mmHg 92%
21:00 +23°C° 0 mm 1 mps 716 mmHg 92%
22:00 +23°C° 0 mm 1 mps 717 mmHg 91%
23:00 +23°C° 0 mm 1 mps 716 mmHg 91%

30 September, Wednesday

Time Temperature Precipitation Wind Pressure Humidity
00:00 +21°C° 0 mm 0 mps 716 mmHg 90%
01:00 +21°C° 0 mm 0 mps 716 mmHg 90%
02:00 +21°C° 0 mm 0 mps 716 mmHg 90%
03:00 +21°C° 0 mm 0 mps 716 mmHg 90%
04:00 +21°C° 0 mm 0 mps 716 mmHg 91%
05:00 +22°C° 0 mm 0 mps 716 mmHg 89%
06:00 +23°C° 0 mm 0 mps 717 mmHg 88%
07:00 +24°C° 0 mm 0 mps 718 mmHg 86%
08:00 +27°C° 0 mm 1 mps 718 mmHg 78%
09:00 +29°C° 0 mm 1 mps 718 mmHg 70%
10:00 +31°C° 0 mm 2 mps 719 mmHg 61%
11:00 +31°C° 0.2 mm 2 mps 718 mmHg 62%
12:00 +31°C° 0.2 mm 2 mps 717 mmHg 64%
13:00 +31°C° 0.2 mm 2 mps 716 mmHg 65%
14:00 +30°C° 1.1 mm 2 mps 716 mmHg 70%
15:00 +30°C° 1.1 mm 1 mps 716 mmHg 75%
16:00 +29°C° 1.1 mm 1 mps 715 mmHg 80%
17:00 +27°C° 0.4 mm 1 mps 715 mmHg 84%
18:00 +26°C° 0.4 mm 1 mps 716 mmHg 88%
19:00 +24°C° 0.4 mm 1 mps 716 mmHg 93%
20:00 +24°C° 0.1 mm 1 mps 716 mmHg 93%
21:00 +24°C° 0.1 mm 1 mps 717 mmHg 93%
22:00 +24°C° 0.1 mm 1 mps 717 mmHg 93%
23:00 +22°C° 0.1 mm 0 mps 717 mmHg 93%

1 October, Thursday

Time Temperature Precipitation Wind Pressure Humidity
00:00 +22°C° 0.1 mm 0 mps 716 mmHg 93%
01:00 +21°C° 0.1 mm 0 mps 716 mmHg 92%
02:00 +21°C° 0.1 mm 0 mps 716 mmHg 92%
03:00 +21°C° 0.1 mm 0 mps 716 mmHg 92%
04:00 +21°C° 0.1 mm 0 mps 716 mmHg 92%
05:00 +22°C° 0.2 mm 0 mps 716 mmHg 90%
06:00 +23°C° 0.2 mm 0 mps 717 mmHg 89%
07:00 +24°C° 0.2 mm 0 mps 717 mmHg 87%
08:00 +27°C° 0.1 mm 1 mps 717 mmHg 78%
09:00 +29°C° 0.1 mm 1 mps 717 mmHg 69%
10:00 +31°C° 0.1 mm 1 mps 718 mmHg 60%
11:00 +31°C° 0.7 mm 2 mps 717 mmHg 65%
12:00 +30°C° 0.7 mm 2 mps 716 mmHg 70%
13:00 +30°C° 0.7 mm 2 mps 715 mmHg 74%
14:00 +30°C° 1.7 mm 1 mps 714 mmHg 78%
15:00 +29°C° 1.7 mm 1 mps 714 mmHg 81%
16:00 +29°C° 1.7 mm 1 mps 714 mmHg 84%
17:00 +27°C° 0.6 mm 1 mps 714 mmHg 87%
18:00 +26°C° 0.6 mm 1 mps 715 mmHg 90%
19:00 +25°C° 0.6 mm 1 mps 715 mmHg 93%
20:00 +24°C° 0.2 mm 1 mps 715 mmHg 92%
21:00 +22°C° 0.2 mm 0 mps 716 mmHg 92%
22:00 +22°C° 0.2 mm 0 mps 716 mmHg 92%
23:00 +22°C° 0 mm 0 mps 716 mmHg 92%
Show more